EN

Hourly Weather Woking

Today, 27 January, Wednesday

Time Temperature Precipitation Wind Pressure Humidity
00:00 +7°C° 0 mm 3 mps 753 mmHg 98%
01:00 +5°C° 0.1 mm 3 mps 753 mmHg 97%
02:00 +5°C° 0.1 mm 3 mps 753 mmHg 97%
03:00 +6°C° 0.1 mm 2 mps 753 mmHg 96%
04:00 +6°C° 0 mm 2 mps 753 mmHg 95%
05:00 +6°C° 0 mm 2 mps 753 mmHg 94%
06:00 +6°C° 0 mm 2 mps 754 mmHg 93%
07:00 +6°C° 0 mm 2 mps 754 mmHg 94%
08:00 +6°C° 0 mm 2 mps 754 mmHg 95%
09:00 +6°C° 0 mm 2 mps 754 mmHg 96%
10:00 +7°C° 0 mm 2 mps 755 mmHg 96%
11:00 +8°C° 0 mm 2 mps 755 mmHg 95%
12:00 +9°C° 0 mm 2 mps 755 mmHg 94%
13:00 +9°C° 0 mm 2 mps 755 mmHg 94%
14:00 +9°C° 0 mm 2 mps 755 mmHg 94%
15:00 +10°C° 0 mm 1 mps 755 mmHg 94%
16:00 +10°C° 0 mm 1 mps 755 mmHg 95%
17:00 +9°C° 0 mm 1 mps 754 mmHg 96%
18:00 +9°C° 0 mm 1 mps 754 mmHg 97%
19:00 +9°C° 0.8 mm 1 mps 754 mmHg 98%
20:00 +8°C° 0.8 mm 2 mps 754 mmHg 98%
21:00 +8°C° 0.8 mm 2 mps 754 mmHg 98%
22:00 +9°C° 1.7 mm 2 mps 753 mmHg 98%
23:00 +9°C° 1.7 mm 3 mps 752 mmHg 98%

Tomorrow, 28 January, Thursday

Time Temperature Precipitation Wind Pressure Humidity
00:00 +9°C° 1.7 mm 3 mps 752 mmHg 98%
01:00 +10°C° 0.5 mm 4 mps 751 mmHg 97%
02:00 +10°C° 0.5 mm 4 mps 750 mmHg 96%
03:00 +9°C° 0.5 mm 5 mps 749 mmHg 95%
04:00 +9°C° 0.9 mm 5 mps 748 mmHg 95%
05:00 +10°C° 0.9 mm 6 mps 748 mmHg 95%
06:00 +10°C° 0.9 mm 6 mps 747 mmHg 95%
07:00 +10°C° 0.1 mm 6 mps 747 mmHg 94%
08:00 +10°C° 0.1 mm 6 mps 747 mmHg 93%
09:00 +10°C° 0.1 mm 7 mps 747 mmHg 92%
10:00 +10°C° 0 mm 7 mps 748 mmHg 89%
11:00 +10°C° 0 mm 8 mps 748 mmHg 86%
12:00 +11°C° 0 mm 8 mps 748 mmHg 82%
13:00 +10°C° 0 mm 7 mps 748 mmHg 82%
14:00 +10°C° 0 mm 6 mps 748 mmHg 82%
15:00 +10°C° 0 mm 5 mps 748 mmHg 81%
16:00 +10°C° 0 mm 5 mps 748 mmHg 85%
17:00 +10°C° 0 mm 4 mps 749 mmHg 89%
18:00 +9°C° 0 mm 3 mps 749 mmHg 93%
19:00 +9°C° 0.3 mm 3 mps 748 mmHg 94%
20:00 +10°C° 0.3 mm 4 mps 747 mmHg 95%
21:00 +10°C° 0.3 mm 4 mps 747 mmHg 96%
22:00 +10°C° 0.8 mm 4 mps 746 mmHg 95%
23:00 +9°C° 0.8 mm 5 mps 746 mmHg 94%

Day after tomorrow, 29 January, Friday

Time Temperature Precipitation Wind Pressure Humidity
00:00 +9°C° 0.8 mm 5 mps 745 mmHg 93%
01:00 +9°C° 0.1 mm 5 mps 745 mmHg 92%
02:00 +8°C° 0.1 mm 5 mps 745 mmHg 91%
03:00 +7°C° 0.1 mm 6 mps 745 mmHg 90%
04:00 +7°C° 0 mm 6 mps 745 mmHg 89%
05:00 +7°C° 0 mm 6 mps 745 mmHg 89%
06:00 +7°C° 0 mm 6 mps 745 mmHg 88%
07:00 +7°C° 0 mm 6 mps 745 mmHg 88%
08:00 +7°C° 0 mm 5 mps 745 mmHg 88%
09:00 +7°C° 0 mm 5 mps 746 mmHg 88%
10:00 +7°C° 0.3 mm 6 mps 745 mmHg 85%
11:00 +8°C° 0.3 mm 7 mps 745 mmHg 82%
12:00 +7°C° 0.3 mm 8 mps 745 mmHg 79%
13:00 +7°C° 0.3 mm 8 mps 745 mmHg 80%
14:00 +7°C° 0.3 mm 8 mps 745 mmHg 81%
15:00 +7°C° 0.3 mm 8 mps 744 mmHg 81%
16:00 +7°C° 0 mm 6 mps 745 mmHg 84%
17:00 +7°C° 0 mm 5 mps 745 mmHg 87%
18:00 +6°C° 0 mm 4 mps 746 mmHg 90%
19:00 +5°C° 0 mm 3 mps 746 mmHg 91%
20:00 +6°C° 0 mm 2 mps 746 mmHg 93%
21:00 +5°C° 0 mm 2 mps 747 mmHg 95%
22:00 +5°C° 0 mm 2 mps 747 mmHg 93%
23:00 +4°C° 0 mm 3 mps 747 mmHg 92%

30 January, Saturday

Time Temperature Precipitation Wind Pressure Humidity
00:00 +4°C° 0 mm 4 mps 746 mmHg 91%
01:00 +4°C° 0 mm 4 mps 746 mmHg 91%
02:00 +3°C° 0 mm 5 mps 745 mmHg 90%
03:00 +2°C° 0 mm 5 mps 744 mmHg 89%
04:00 +3°C° 0.2 mm 6 mps 743 mmHg 89%
05:00 +3°C° 0.2 mm 6 mps 742 mmHg 89%
06:00 +3°C° 0.2 mm 7 mps 742 mmHg 90%
07:00 +3°C° 1.1 mm 7 mps 742 mmHg 90%
08:00 +2°C° 1.1 mm 7 mps 742 mmHg 91%
09:00 +1°C° 1.1 mm 8 mps 742 mmHg 92%
10:00 +2°C° 0.5 mm 7 mps 742 mmHg 92%
11:00 +2°C° 0.5 mm 7 mps 743 mmHg 92%
12:00 +2°C° 0.5 mm 7 mps 743 mmHg 92%
13:00 0°C° 0.5 mm 7 mps 743 mmHg 92%
14:00 0°C° 0.5 mm 7 mps 744 mmHg 93%
15:00 0°C° 0.5 mm 8 mps 744 mmHg 93%
16:00 0°C° 0 mm 7 mps 745 mmHg 89%
17:00 0°C° 0 mm 7 mps 746 mmHg 84%
18:00 -1°C° 0 mm 7 mps 747 mmHg 80%
19:00 -1°C° 0 mm 6 mps 748 mmHg 79%
20:00 -1°C° 0 mm 6 mps 748 mmHg 78%
21:00 -1°C° 0 mm 5 mps 749 mmHg 77%
22:00 -1°C° 0 mm 5 mps 750 mmHg 77%
23:00 -1°C° 0 mm 5 mps 750 mmHg 77%

31 January, Sunday

Time Temperature Precipitation Wind Pressure Humidity
00:00 -1°C° 0 mm 4 mps 751 mmHg 77%
01:00 -1°C° 0 mm 4 mps 751 mmHg 76%
02:00 -2°C° 0 mm 4 mps 751 mmHg 75%
03:00 -1°C° 0 mm 3 mps 751 mmHg 74%
04:00 -1°C° 0 mm 3 mps 751 mmHg 74%
05:00 -1°C° 0 mm 3 mps 751 mmHg 73%
06:00 -1°C° 0 mm 2 mps 751 mmHg 73%
07:00 0°C° 0 mm 3 mps 751 mmHg 70%
08:00 -1°C° 0 mm 4 mps 751 mmHg 67%
09:00 -1°C° 0 mm 4 mps 750 mmHg 64%
10:00 0°C° 0 mm 5 mps 750 mmHg 59%
11:00 +1°C° 0 mm 6 mps 749 mmHg 54%
12:00 +1°C° 0 mm 6 mps 748 mmHg 50%
13:00 +1°C° 0 mm 6 mps 747 mmHg 55%
14:00 +1°C° 0 mm 6 mps 746 mmHg 61%
15:00 +1°C° 0 mm 6 mps 745 mmHg 66%
16:00 +1°C° 0 mm 5 mps 744 mmHg 73%
17:00 +1°C° 0 mm 5 mps 743 mmHg 79%
18:00 +1°C° 0 mm 5 mps 743 mmHg 85%
19:00 +1°C° 0.1 mm 4 mps 743 mmHg 86%
20:00 +1°C° 0.1 mm 4 mps 743 mmHg 87%
21:00 +1°C° 0.1 mm 4 mps 742 mmHg 88%
22:00 +2°C° 0 mm 3 mps 743 mmHg 90%
23:00 +2°C° 0 mm 3 mps 743 mmHg 91%

1 February, Monday

Time Temperature Precipitation Wind Pressure Humidity
00:00 +3°C° 0 mm 2 mps 743 mmHg 92%
01:00 +3°C° 0.1 mm 2 mps 743 mmHg 93%
02:00 +4°C° 0.1 mm 2 mps 743 mmHg 94%
03:00 +4°C° 0.1 mm 2 mps 743 mmHg 95%
04:00 +3°C° 0.3 mm 3 mps 743 mmHg 96%
05:00 +4°C° 0.3 mm 3 mps 743 mmHg 97%
06:00 +4°C° 0.3 mm 4 mps 743 mmHg 97%
07:00 +5°C° 0.4 mm 4 mps 744 mmHg 96%
08:00 +5°C° 0.4 mm 4 mps 744 mmHg 94%
09:00 +6°C° 0.4 mm 4 mps 744 mmHg 93%
10:00 +6°C° 0 mm 5 mps 744 mmHg 88%
11:00 +7°C° 0 mm 5 mps 744 mmHg 83%
12:00 +8°C° 0 mm 5 mps 744 mmHg 78%
13:00 +8°C° 0 mm 5 mps 744 mmHg 80%
14:00 +10°C° 0 mm 4 mps 744 mmHg 82%
15:00 +10°C° 0 mm 3 mps 743 mmHg 84%
16:00 +9°C° 0 mm 3 mps 743 mmHg 88%
17:00 +9°C° 0 mm 3 mps 743 mmHg 92%
18:00 +8°C° 0 mm 3 mps 742 mmHg 96%
19:00 +8°C° 1.1 mm 4 mps 742 mmHg 95%
20:00 +9°C° 1.1 mm 5 mps 742 mmHg 94%
21:00 +9°C° 1.1 mm 6 mps 741 mmHg 94%
22:00 +9°C° 0.1 mm 6 mps 741 mmHg 93%
23:00 +8°C° 0.1 mm 5 mps 741 mmHg 93%
Show more